Location: Haliburton Scout Reserve
(45.0900°N, 78.3200°W)
Time: 03:05:56
(UTC-04:00)

NANOSAT C BR1 - Pass Details

Date: 25 May 2022
Orbit: 583 x 601 km, 98.0° (Epoch: 27 June)

Event Time Altitude Azimuth Distance (km) Brightness Sun altitude
Rises 02:58:46 0° 18° (NNE) 2,820 ? -19.5°
Reaches altitude 10° 03:00:59 10° 24° (NNE) 1,914 ? -19.3°
Maximum altitude 03:05:01 49° 100° (E) 757 ? -19.0°
Enters shadow 03:06:42 30° 158° (SSE) 1,054 ? -18.8°
